| time (UTC) | temp C | wind direction | speed KPH | gust KPH | rain 1hr cm | rain 24hr cm | rain mn cm | humidity % | barometer mb |
| 20260508163145 | 14 | 209 | 3.2 | 14.5 | 0.00 | 2.57 | 0.00 | 68 | 1001.1 |
| 20260508161545 | 15 | 223 | 4.8 | 12.9 | 0.00 | 2.57 | 0.00 | 60 | 1001.1 |
| 20260508160042 | 15 | 128 | 3.2 | 9.7 | 0.00 | 2.57 | 0.00 | 60 | 1001.1 |
| 20260508154550 | 15 | 101 | 0.0 | 11.3 | 0.00 | 2.57 | 0.00 | 64 | 1001.2 |
| 20260508153039 | 15 | 194 | 1.6 | 9.7 | 0.00 | 2.57 | 0.00 | 66 | 1001.1 |
| 20260508151536 | 15 | 237 | 3.2 | 8.0 | 0.00 | 2.57 | 0.00 | 67 | 1001.2 |
| 20260508150034 | 14 | 189 | 4.8 | 11.3 | 0.00 | 2.57 | 0.00 | 64 | 1001.2 |
| 20260508144532 | 13 | 252 | 1.6 | 11.3 | 0.00 | 2.57 | 0.00 | 68 | 1001.4 |
| 20260508143036 | 14 | 103 | 3.2 | 17.7 | 0.00 | 2.57 | 0.00 | 67 | 1001.6 |
| 20260508141544 | 14 | 19 | 0.0 | 6.4 | 0.00 | 2.57 | 0.00 | 68 | 1001.7 |
| 20260508140027 | 13 | 36 | 4.8 | 8.0 | 0.00 | 2.57 | 0.00 | 71 | 1001.8 |
| 20260508134524 | 13 | 207 | 3.2 | 8.0 | 0.00 | 2.57 | 0.00 | 69 | 1002.0 |
| 20260508133022 | 13 | 75 | 0.0 | 9.7 | 0.00 | 2.57 | 0.00 | 67 | 1002.3 |
| 20260508131517 | 13 | 288 | 0.0 | 3.2 | 0.00 | 2.57 | 0.00 | 75 | 1002.3 |
| 20260508130012 | 12 | 319 | 0.0 | 6.4 | 0.00 | 2.57 | 0.00 | 77 | 1002.4 |
| 20260508124507 | 12 | 87 | 0.0 | 3.2 | 0.00 | 2.57 | 0.00 | 81 | 1002.6 |
| 20260508123006 | 11 | 313 | 0.0 | 4.8 | 0.00 | 2.57 | 0.00 | 84 | 1002.1 |
| 20260508121611 | 11 | 5 | 0.0 | 4.8 | 0.00 | 2.57 | 0.00 | 87 | 1001.9 |
| 20260508120100 | 10 | 348 | 0.0 | 0.0 | 0.00 | 2.57 | 0.00 | 90 | 1002.2 |
| 20260508114550 | 9 | 15 | 0.0 | 0.0 | 0.00 | 2.59 | 0.00 | 96 | 1002.4 |
| 20260508113055 | 8 | 22 | 0.0 | 0.0 | 0.00 | 2.59 | 0.00 | 98 | 1002.5 |
| 20260508111556 | 8 | 23 | 0.0 | 1.6 | 0.00 | 2.59 | 0.00 | 98 | 1002.3 |
| 20260508110057 | 7 | 18 | 0.0 | 3.2 | 0.00 | 2.59 | 0.00 | 98 | 1002.3 |
| 20260508104544 | 6 | 5 | 0.0 | 3.2 | 0.00 | 2.67 | 0.00 | 99 | 1002.8 |
| 20260508103142 | 6 | 24 | 0.0 | 1.6 | 0.00 | 2.67 | 0.00 | 98 | 1002.7 |
| 20260508101543 | 5 | 24 | 0.0 | 0.0 | 0.00 | 2.67 | 0.00 | 99 | 1002.6 |
| 20260508100038 | 5 | 24 | 0.0 | 0.0 | 0.00 | 2.69 | 0.00 | 98 | 1002.7 |
| 20260508094549 | 5 | 24 | 0.0 | 0.0 | 0.00 | 2.69 | 0.00 | 98 | 1002.4 |
| 20260508093034 | 5 | 24 | 0.0 | 0.0 | 0.00 | 2.69 | 0.00 | 98 | 1002.2 |
| 20260508091529 | 5 | 24 | 0.0 | 0.0 | 0.00 | 2.69 | 0.00 | 98 | 1002.0 |
| 20260508090032 | 5 | 24 | 0.0 | 3.2 | 0.00 | 2.69 | 0.00 | 98 | 1002.1 |
| 20260508084524 | 5 | 24 | 0.0 | 1.6 | 0.00 | 2.69 | 0.00 | 98 | 1002.1 |
| 20260508083022 | 5 | 24 | 0.0 | 0.0 | 0.00 | 2.69 | 0.00 | 98 | 1002.0 |
| 20260508081519 | 6 | 24 | 0.0 | 0.0 | 0.00 | 2.69 | 0.00 | 98 | 1001.6 |
| 20260508080021 | 6 | 24 | 0.0 | 0.0 | 0.00 | 2.69 | 0.00 | 98 | 1001.5 |
| 20260508074515 | 6 | 24 | 0.0 | 0.0 | 0.00 | 2.69 | 0.00 | 98 | 1001.5 |
| 20260508073021 | 6 | 24 | 0.0 | 1.6 | 0.00 | 2.69 | 0.00 | 98 | 1001.6 |
| 20260508071514 | 7 | 42 | 0.0 | 1.6 | 0.00 | 2.69 | 0.00 | 98 | 1001.6 |
| 20260508070010 | 7 | 44 | 0.0 | 3.2 | 0.00 | 2.69 | 0.00 | 98 | 1001.6 |
| 20260508064508 | 7 | 46 | 0.0 | 1.6 | 0.00 | 2.69 | 0.00 | 98 | 1001.8 |
| 20260508063009 | 7 | 46 | 0.0 | 4.8 | 0.00 | 2.69 | 0.00 | 98 | 1001.7 |
| 20260508061514 | 7 | 12 | 0.0 | 1.6 | 0.00 | 2.69 | 0.00 | 98 | 1001.8 |
| 20260508060006 | 7 | 12 | 0.0 | 0.0 | 0.00 | 2.69 | 0.00 | 98 | 1001.9 |
| 20260508054504 | 7 | 12 | 0.0 | 0.0 | 0.00 | 2.69 | 0.00 | 98 | 1001.8 |
| 20260508053007 | 7 | 12 | 0.0 | 0.0 | 0.00 | 2.69 | 0.00 | 98 | 1001.8 |
| 20260508051603 | 7 | 12 | 0.0 | 0.0 | 0.00 | 2.69 | 0.00 | 98 | 1001.9 |
| 20260508050100 | 7 | 12 | 0.0 | 0.0 | 0.00 | 2.69 | 0.00 | 98 | 1001.8 |
| 20260508044602 | 7 | 12 | 0.0 | 1.6 | 0.00 | 2.69 | 0.00 | 98 | 1001.8 |
| 20260508043102 | 8 | 12 | 0.0 | 0.0 | 0.00 | 2.69 | 0.00 | 98 | 1001.6 |
| 20260508041558 | 8 | 12 | 0.0 | 0.0 | 0.00 | 2.69 | 0.00 | 98 | 1001.8 |
| 20260508040053 | 8 | 12 | 0.0 | 0.0 | 0.00 | 2.69 | 0.00 | 98 | 1001.8 |
| 20260508034556 | 8 | 12 | 0.0 | 0.0 | 0.00 | 2.69 | 0.00 | 98 | 1001.8 |
| 20260508033050 | 8 | 12 | 0.0 | 0.0 | 0.00 | 2.69 | 0.00 | 98 | 1002.1 |
| 20260508031548 | 8 | 12 | 0.0 | 0.0 | 0.00 | 2.69 | 0.00 | 98 | 1002.2 |
| 20260508030147 | 9 | 12 | 0.0 | 0.0 | 0.00 | 2.69 | 0.00 | 98 | 1002.4 |
| 20260508024549 | 9 | 12 | 0.0 | 0.0 | 0.00 | 2.69 | 2.69 | 98 | 1002.3 |
| 20260508023049 | 9 | 12 | 0.0 | 6.4 | 0.00 | 2.69 | 2.69 | 98 | 1002.4 |
| 20260508021547 | 9 | 331 | 0.0 | 4.8 | 0.00 | 2.69 | 2.69 | 98 | 1002.6 |
| 20260508020044 | 9 | 328 | 0.0 | 1.6 | 0.00 | 2.69 | 2.69 | 98 | 1002.4 |
| 20260508014551 | 9 | 327 | 0.0 | 6.4 | 0.00 | 2.69 | 2.69 | 99 | 1002.3 |
| 20260508013046 | 9 | 323 | 0.0 | 3.2 | 0.00 | 2.69 | 2.69 | 98 | 1002.4 |
| 20260508011545 | 9 | 323 | 0.0 | 0.0 | 0.03 | 2.69 | 2.69 | 98 | 1002.1 |
| 20260508010043 | 9 | 323 | 0.0 | 6.4 | 0.03 | 2.69 | 2.69 | 98 | 1001.8 |
| 20260508004541 | 9 | 157 | 0.0 | 0.0 | 0.05 | 2.69 | 2.69 | 98 | 1002.1 |
| 20260508003055 | 9 | 157 | 0.0 | 0.0 | 0.05 | 2.69 | 2.69 | 98 | 1002.4 |
| 20260508001542 | 9 | 157 | 0.0 | 0.0 | 0.03 | 2.67 | 2.67 | 98 | 1002.5 |
| 20260508000043 | 9 | 157 | 0.0 | 0.0 | 0.03 | 2.67 | 2.67 | 98 | 1002.4 |
| 20260507234539 | 9 | 157 | 0.0 | 0.0 | 0.00 | 2.64 | 2.64 | 98 | 1002.6 |
| 20260507233038 | 9 | 157 | 0.0 | 1.6 | 0.00 | 2.64 | 2.64 | 98 | 1002.5 |
| 20260507231540 | 9 | 135 | 0.0 | 0.0 | 0.00 | 2.64 | 2.64 | 98 | 1002.5 |
| 20260507230040 | 9 | 135 | 0.0 | 0.0 | 0.00 | 2.64 | 2.64 | 98 | 1002.3 |
| 20260507224547 | 9 | 135 | 0.0 | 0.0 | 0.00 | 2.64 | 2.64 | 98 | 1002.4 |
| 20260507223034 | 9 | 115 | 0.0 | 3.2 | 0.00 | 2.64 | 2.64 | 98 | 1002.4 |
| 20260507221533 | 10 | 123 | 0.0 | 3.2 | 0.00 | 2.64 | 2.64 | 98 | 1002.5 |
| 20260507220031 | 10 | 92 | 0.0 | 1.6 | 0.00 | 2.64 | 2.64 | 98 | 1002.7 |
| 20260507214530 | 10 | 104 | 0.0 | 0.0 | 0.00 | 2.64 | 2.64 | 98 | 1002.8 |
| 20260507213030 | 10 | 84 | 0.0 | 3.2 | 0.00 | 2.64 | 2.64 | 98 | 1003.0 |
| 20260507211528 | 10 | 116 | 0.0 | 0.0 | 0.05 | 2.64 | 2.64 | 98 | 1002.6 |
| 20260507210031 | 10 | 215 | 0.0 | 1.6 | 0.05 | 2.64 | 2.64 | 98 | 1002.8 |
| 20260507204527 | 10 | 206 | 0.0 | 4.8 | 0.15 | 2.64 | 2.64 | 98 | 1002.3 |
| 20260507203025 | 10 | 241 | 0.0 | 4.8 | 0.30 | 2.64 | 2.64 | 98 | 1002.5 |
| 20260507201527 | 10 | 202 | 0.0 | 3.2 | 0.48 | 2.59 | 2.59 | 98 | 1002.7 |
| 20260507200022 | 10 | 240 | 0.0 | 1.6 | 0.66 | 2.59 | 2.59 | 98 | 1003.3 |
| 20260507194524 | 10 | 111 | 0.0 | 4.8 | 0.71 | 2.49 | 2.49 | 98 | 1002.9 |
| 20260507193020 | 10 | 149 | 0.0 | 3.2 | 0.81 | 2.34 | 2.34 | 98 | 1004.0 |
| 20260507191519 | 10 | 121 | 0.0 | 0.0 | 0.84 | 2.11 | 2.11 | 98 | 1004.6 |
| 20260507190020 | 10 | 136 | 0.0 | 0.0 | 0.84 | 1.93 | 1.93 | 98 | 1004.6 |
| 20260507184519 | 10 | 136 | 0.0 | 0.0 | 1.14 | 1.75 | 1.75 | 98 | 1004.5 |
| 20260507183015 | 10 | 136 | 0.0 | 1.6 | 1.17 | 1.52 | 1.52 | 98 | 1004.8 |
| 20260507181514 | 9 | 157 | 0.0 | 3.2 | 1.04 | 1.27 | 1.27 | 98 | 1005.1 |
| 20260507180015 | 9 | 109 | 0.0 | 3.2 | 0.89 | 1.07 | 1.07 | 97 | 1005.4 |
| 20260507174512 | 10 | 118 | 0.0 | 11.3 | 0.46 | 0.61 | 0.61 | 97 | 1005.5 |
| 20260507173011 | 10 | 208 | 0.0 | 8.0 | 0.20 | 0.33 | 0.33 | 97 | 1004.7 |
| 20260507171510 | 10 | 122 | 3.2 | 11.3 | 0.10 | 0.23 | 0.23 | 97 | 1004.9 |
| 20260507170008 | 10 | 186 | 1.6 | 11.3 | 0.05 | 0.15 | 0.15 | 97 | 1005.2 |
| 20260507164506 | 10 | 194 | 0.0 | 6.4 | 0.03 | 0.15 | 0.15 | 97 | 1005.5 |